TimeEST,TemperatureF,Dew PointF,Humidity,Sea Level PressureIn,VisibilityMPH,Wind Direction,Wind SpeedMPH,Gust SpeedMPH,PrecipitationIn,Events,Conditions,WindDirDegrees,DateUTC
12:15 AM,26.6,25.2,94,30.13,10.0,Calm,Calm,-,N/A,,Mostly Cloudy,0,2012-11-06 05:15:00
12:35 AM,28.0,26.2,93,30.13,10.0,Calm,Calm,-,N/A,,Overcast,0,2012-11-06 05:35:00
12:55 AM,28.0,26.2,93,30.13,10.0,Calm,Calm,-,N/A,,Overcast,0,2012-11-06 05:55:00
1:15 AM,27.5,26.2,95,30.13,10.0,Calm,Calm,-,N/A,,Overcast,0,2012-11-06 06:15:00
1:35 AM,27.1,26.1,96,30.11,10.0,SE,3.5,-,N/A,,Mostly Cloudy,130,2012-11-06 06:35:00
1:55 AM,25.7,24.6,96,30.10,10.0,SSE,4.6,-,N/A,,Clear,150,2012-11-06 06:55:00
2:15 AM,26.8,25.7,96,30.10,10.0,Calm,Calm,-,N/A,,Clear,0,2012-11-06 07:15:00
2:35 AM,28.6,27.1,94,30.10,10.0,Calm,Calm,-,N/A,,Clear,0,2012-11-06 07:35:00
2:55 AM,27.3,25.3,92,30.11,10.0,Calm,Calm,-,N/A,,Clear,0,2012-11-06 07:55:00
3:15 AM,25.5,23.9,94,30.10,10.0,Calm,Calm,-,N/A,,Clear,0,2012-11-06 08:15:00
3:35 AM,23.4,21.7,94,30.09,7.0,Calm,Calm,-,N/A,,Clear,0,2012-11-06 08:35:00
3:55 AM,23.2,22.3,96,30.09,7.0,Calm,Calm,-,N/A,,Clear,0,2012-11-06 08:55:00
4:15 AM,22.1,21.0,96,30.08,10.0,Calm,Calm,-,N/A,,Clear,0,2012-11-06 09:15:00
4:35 AM,21.0,19.9,96,30.07,7.0,Calm,Calm,-,N/A,,Clear,0,2012-11-06 09:35:00
4:55 AM,22.5,21.7,97,30.07,5.0,Calm,Calm,-,N/A,,Clear,0,2012-11-06 09:55:00
5:15 AM,21.9,21.2,97,30.06,5.0,Calm,Calm,-,N/A,,Clear,0,2012-11-06 10:15:00
5:35 AM,21.2,20.5,97,30.07,7.0,Calm,Calm,-,N/A,,Clear,0,2012-11-06 10:35:00
5:55 AM,22.1,21.6,98,30.07,4.0,Calm,Calm,-,N/A,,Clear,0,2012-11-06 10:55:00
6:15 AM,21.7,20.8,96,30.07,7.0,Calm,Calm,-,N/A,,Clear,0,2012-11-06 11:15:00
6:55 AM,22.3,21.6,97,30.07,7.0,Calm,Calm,-,N/A,,Clear,0,2012-11-06 11:55:00
7:15 AM,20.5,19.9,98,30.07,7.0,Calm,Calm,-,N/A,,Clear,0,2012-11-06 12:15:00
7:35 AM,19.8,18.9,96,30.08,7.0,Calm,Calm,-,N/A,,Clear,0,2012-11-06 12:35:00
7:55 AM,21.4,20.7,97,30.08,7.0,Calm,Calm,-,N/A,,Clear,0,2012-11-06 12:55:00
8:15 AM,23.9,23.0,96,30.07,5.0,Calm,Calm,-,N/A,,Mostly Cloudy,0,2012-11-06 13:15:00
8:35 AM,27.5,26.8,97,30.07,5.0,Calm,Calm,-,N/A,,Mostly Cloudy,0,2012-11-06 13:35:00
8:55 AM,29.3,28.4,96,30.07,7.0,SE,4.6,-,N/A,,Mostly Cloudy,140,2012-11-06 13:55:00
9:15 AM,30.7,29.3,94,30.07,7.0,Calm,Calm,-,N/A,,Mostly Cloudy,0,2012-11-06 14:15:00
9:35 AM,31.6,30.0,94,30.06,7.0,SE,3.5,-,N/A,,Overcast,140,2012-11-06 14:35:00
9:55 AM,32.2,30.7,94,30.06,7.0,Calm,Calm,-,N/A,,Overcast,0,2012-11-06 14:55:00
10:15 AM,34.0,31.8,92,30.06,10.0,South,5.8,-,N/A,,Overcast,170,2012-11-06 15:15:00
10:35 AM,35.1,32.0,89,30.06,10.0,South,5.8,-,N/A,,Overcast,170,2012-11-06 15:35:00
10:55 AM,36.5,32.0,84,30.05,10.0,SSE,4.6,-,N/A,,Overcast,160,2012-11-06 15:55:00
11:15 AM,37.9,32.0,79,30.05,10.0,SSE,4.6,-,N/A,,Overcast,160,2012-11-06 16:15:00
11:35 AM,39.6,31.3,72,30.04,10.0,SSE,8.1,-,N/A,,Overcast,160,2012-11-06 16:35:00
11:55 AM,40.1,30.6,69,30.03,10.0,SSE,11.5,-,N/A,,Overcast,150,2012-11-06 16:55:00
12:15 PM,41.4,30.4,65,30.01,10.0,SE,9.2,-,N/A,,Overcast,140,2012-11-06 17:15:00
12:35 PM,41.9,30.0,63,30.01,10.0,SE,8.1,-,N/A,,Mostly Cloudy,140,2012-11-06 17:35:00
12:55 PM,41.4,29.3,62,30.00,10.0,South,11.5,16.1,N/A,,Mostly Cloudy,170,2012-11-06 17:55:00
1:15 PM,41.4,28.6,60,29.99,10.0,SSE,6.9,-,N/A,,Overcast,160,2012-11-06 18:15:00
1:35 PM,42.1,28.4,58,29.98,10.0,SE,8.1,-,N/A,,Mostly Cloudy,140,2012-11-06 18:35:00
1:55 PM,44.8,29.3,55,29.98,10.0,South,12.7,-,N/A,,Scattered Clouds,180,2012-11-06 18:55:00
2:15 PM,43.9,28.2,54,29.97,10.0,South,8.1,-,N/A,,Mostly Cloudy,170,2012-11-06 19:15:00
2:35 PM,44.6,28.8,54,29.97,10.0,South,10.4,-,N/A,,Overcast,190,2012-11-06 19:35:00
2:55 PM,42.4,27.9,56,29.97,10.0,South,10.4,-,N/A,,Mostly Cloudy,190,2012-11-06 19:55:00
3:15 PM,42.8,27.9,56,29.96,10.0,SSE,6.9,-,N/A,,Overcast,160,2012-11-06 20:15:00
3:35 PM,43.7,27.5,53,29.96,10.0,SSE,5.8,-,N/A,,Mostly Cloudy,150,2012-11-06 20:35:00
3:55 PM,43.0,27.3,54,29.95,10.0,SSE,5.8,-,N/A,,Scattered Clouds,150,2012-11-06 20:55:00
4:15 PM,41.4,27.5,58,29.95,10.0,SE,5.8,-,N/A,,Scattered Clouds,130,2012-11-06 21:15:00
4:35 PM,41.0,27.9,60,29.95,10.0,SE,4.6,-,N/A,,Mostly Cloudy,130,2012-11-06 21:35:00
5:15 PM,40.6,27.5,59,29.95,10.0,SE,4.6,-,N/A,,Mostly Cloudy,130,2012-11-06 22:15:00
5:35 PM,39.9,27.5,61,29.95,10.0,ESE,3.5,-,N/A,,Scattered Clouds,120,2012-11-06 22:35:00
5:55 PM,39.4,27.3,62,29.95,10.0,Calm,Calm,-,N/A,,Clear,0,2012-11-06 22:55:00
6:15 PM,38.1,27.3,65,29.96,10.0,East,3.5,-,N/A,,Scattered Clouds,100,2012-11-06 23:15:00
6:35 PM,36.5,27.3,69,29.96,10.0,ESE,3.5,-,N/A,,Clear,110,2012-11-06 23:35:00
6:55 PM,36.7,27.5,69,29.96,10.0,ESE,4.6,-,N/A,,Clear,120,2012-11-06 23:55:00
7:15 PM,36.5,28.0,71,29.96,10.0,ESE,3.5,-,N/A,,Clear,120,2012-11-07 00:15:00
7:35 PM,35.6,27.9,73,29.96,10.0,Calm,Calm,-,N/A,,Scattered Clouds,0,2012-11-07 00:35:00
7:55 PM,36.0,28.6,75,29.96,10.0,SE,3.5,-,N/A,,Mostly Cloudy,130,2012-11-07 00:55:00
8:15 PM,36.1,28.8,75,29.96,10.0,ESE,5.8,-,N/A,,Overcast,120,2012-11-07 01:15:00
8:35 PM,36.5,28.9,74,29.96,10.0,ESE,5.8,-,N/A,,Overcast,120,2012-11-07 01:35:00
8:55 PM,36.3,29.1,75,29.96,10.0,ESE,5.8,-,N/A,,Overcast,120,2012-11-07 01:55:00
9:15 PM,36.0,28.9,76,29.96,10.0,ESE,5.8,-,N/A,,Overcast,120,2012-11-07 02:15:00
9:35 PM,36.0,29.1,76,29.96,10.0,ESE,5.8,-,N/A,,Overcast,120,2012-11-07 02:35:00
9:55 PM,35.8,29.3,77,29.96,10.0,ESE,4.6,-,N/A,,Overcast,110,2012-11-07 02:55:00
10:15 PM,35.8,29.3,77,29.96,10.0,ESE,4.6,-,N/A,,Overcast,120,2012-11-07 03:15:00
10:35 PM,35.6,29.3,78,29.96,10.0,East,3.5,-,N/A,,Overcast,100,2012-11-07 03:35:00
10:55 PM,35.6,29.3,78,29.96,10.0,ESE,4.6,-,N/A,,Overcast,110,2012-11-07 03:55:00
11:15 PM,35.2,29.3,79,29.95,10.0,East,4.6,-,N/A,,Overcast,100,2012-11-07 04:15:00
11:35 PM,35.2,29.3,79,29.95,10.0,East,5.8,-,N/A,,Overcast,100,2012-11-07 04:35:00
11:55 PM,35.6,29.7,79,29.95,10.0,East,4.6,-,N/A,,Overcast,100,2012-11-07 04:55:00